Location: Pallagorio
(39.3000°N, 16.9000°E)
Time: 19:10:00
(UTC+00:00)

H-2A R/B - Pass Details

Date: 24 January 2021
Orbit: 734 x 836 km, 98.2° (Epoch: 02 March)

Event Time Altitude Azimuth Distance (km) Brightness Sun altitude
Rises 17:42:44 0° 167° (SSE) 3,167 5.2 -19.1°
Reaches altitude 10° 17:44:59 10° 167° (SSE) 2,258 4.4 -19.5°
Maximum altitude 17:49:57 86° 257° (WSW) 768 1.9 -20.5°
Drops below altitude 10° 17:55:06 10° 346° (NNW) 2,333 4.6 -21.5°
Sets 17:57:27 0° 347° (NNW) 3,281 5.3 -21.9°
